カタログに戻る

TIANLU-1

運用中気象SSO
NORAD 62725·PAYLOAD·🇨🇳 China
この衛星名は、まだ公式ソースで確認されていません。

打ち上げ Jan 17, 2025 から Jiuquan Satellite Launch Center

Loading…

次のパス (今後24時間)

TLE

最新Source: Space-Track

元期: Sep 14, 2026, 22:14 UTC

1 62725U 25012A   26257.92686318  .00006010  00000-0  30202-3 0  9994
2 62725  97.4147 328.5901 0004205 335.4415  24.6618 15.17619930 91807

AllMySatでTIANLU-1をリアルタイム追跡

Download on the App Store